TimeEDT,TemperatureF,Dew PointF,Humidity,Sea Level PressureIn,VisibilityMPH,Wind Direction,Wind SpeedMPH,Gust SpeedMPH,PrecipitationIn,Events,Conditions,WindDirDegrees,DateUTC
12:52 AM,75.0,70.0,84,30.18,3.0,Calm,Calm,-,N/A,,Mostly Cloudy,0,2012-10-04 04:52:00
1:52 AM,73.9,70.0,87,30.18,0.2,Calm,Calm,-,N/A,Fog,Fog,0,2012-10-04 05:52:00
2:52 AM,73.9,70.0,87,30.17,0.2,Calm,Calm,-,N/A,Fog,Fog,0,2012-10-04 06:52:00
3:52 AM,73.0,69.1,87,30.17,0.2,Calm,Calm,-,N/A,Fog,Fog,0,2012-10-04 07:52:00
4:17 AM,73.4,69.8,88,30.16,0.2,Calm,Calm,-,N/A,Fog,Fog,0,2012-10-04 08:17:00
4:27 AM,73.4,69.8,88,30.16,0.5,Calm,Calm,-,N/A,Fog,Fog,0,2012-10-04 08:27:00
4:52 AM,73.0,69.1,87,30.16,1.2,Calm,Calm,-,N/A,,Clear,0,2012-10-04 08:52:00
4:59 AM,73.4,69.8,88,30.16,3.0,Calm,Calm,-,N/A,,Clear,0,2012-10-04 08:59:00
5:41 AM,71.6,69.8,94,30.18,0.8,Calm,Calm,-,N/A,,Clear,0,2012-10-04 09:41:00
5:49 AM,73.4,68.0,83,30.18,7.0,Calm,Calm,-,N/A,Fog,Shallow Fog,0,2012-10-04 09:49:00
5:52 AM,73.0,69.1,87,30.18,7.0,Calm,Calm,-,N/A,Fog,Shallow Fog,0,2012-10-04 09:52:00
6:49 AM,73.4,69.8,88,30.19,0.2,Calm,Calm,-,N/A,Fog,Fog,0,2012-10-04 10:49:00
6:52 AM,73.0,70.0,90,30.19,0.2,Calm,Calm,-,N/A,Fog,Fog,0,2012-10-04 10:52:00
7:11 AM,73.4,69.8,88,30.19,0.5,Calm,Calm,-,N/A,Fog,Fog,0,2012-10-04 11:11:00
7:27 AM,73.4,69.8,88,30.20,1.0,Calm,Calm,-,N/A,,Scattered Clouds,0,2012-10-04 11:27:00
7:42 AM,73.4,69.8,88,30.19,3.0,Calm,Calm,-,N/A,,Scattered Clouds,0,2012-10-04 11:42:00
7:52 AM,73.0,70.0,90,30.19,4.0,Calm,Calm,-,N/A,,Scattered Clouds,0,2012-10-04 11:52:00
8:52 AM,75.9,72.0,87,30.20,6.0,NW,4.6,-,N/A,,Scattered Clouds,310,2012-10-04 12:52:00
9:52 AM,79.0,73.0,82,30.21,10.0,Calm,Calm,-,N/A,,Mostly Cloudy,0,2012-10-04 13:52:00
10:52 AM,81.0,73.0,77,30.22,10.0,ESE,3.5,-,N/A,,Mostly Cloudy,110,2012-10-04 14:52:00
11:52 AM,84.0,73.0,69,30.21,10.0,East,6.9,-,N/A,,Scattered Clouds,80,2012-10-04 15:52:00
12:52 PM,84.9,73.9,69,30.20,10.0,NE,6.9,-,N/A,,Mostly Cloudy,50,2012-10-04 16:52:00
1:48 PM,84.2,73.4,70,30.18,10.0,NE,10.4,-,N/A,Thunderstorm,Thunderstorm,50,2012-10-04 17:48:00
1:52 PM,86.0,73.9,67,30.18,10.0,NE,8.1,-,N/A,Thunderstorm,Thunderstorm,50,2012-10-04 17:52:00
2:35 PM,80.6,73.4,79,30.15,10.0,ENE,9.2,-,0.01,Rain-Thunderstorm,Light Thunderstorms and Rain,60,2012-10-04 18:35:00
2:52 PM,81.0,73.0,77,30.15,10.0,NE,9.2,-,0.01,Thunderstorm,Thunderstorm,50,2012-10-04 18:52:00
3:02 PM,80.6,73.4,79,30.15,10.0,NNE,10.4,-,0.00,Rain-Thunderstorm,Light Thunderstorms and Rain,30,2012-10-04 19:02:00
3:52 PM,75.0,70.0,84,30.16,3.0,Variable,4.6,-,0.17,Rain-Thunderstorm,Heavy Thunderstorms and Rain,0,2012-10-04 19:52:00
4:52 PM,73.9,68.0,82,30.14,10.0,North,3.5,-,0.09,Rain-Thunderstorm,Light Thunderstorms and Rain,360,2012-10-04 20:52:00
5:41 PM,75.2,69.8,83,30.15,8.0,Calm,Calm,-,0.03,Rain,Light Rain,0,2012-10-04 21:41:00
5:52 PM,75.0,70.0,84,30.15,5.0,Calm,Calm,-,0.04,Rain-Thunderstorm,Light Thunderstorms and Rain,0,2012-10-04 21:52:00
6:42 PM,73.4,69.8,88,30.14,4.0,Calm,Calm,-,0.10,Rain,Light Rain,0,2012-10-04 22:42:00
6:52 PM,75.0,70.0,84,30.15,4.0,Calm,Calm,-,0.13,Rain,Light Rain,0,2012-10-04 22:52:00
7:52 PM,75.0,71.1,87,30.18,6.0,WNW,3.5,-,0.07,Rain,Light Rain,300,2012-10-04 23:52:00
8:52 PM,77.0,72.0,84,30.17,10.0,NNW,4.6,-,0.01,,Overcast,340,2012-10-05 00:52:00
9:52 PM,75.9,72.0,87,30.19,9.0,NW,3.5,-,N/A,,Mostly Cloudy,320,2012-10-05 01:52:00
10:52 PM,78.1,72.0,81,30.18,10.0,NNE,4.6,-,N/A,,Mostly Cloudy,20,2012-10-05 02:52:00
11:24 PM,78.8,71.6,78,30.18,10.0,East,9.2,-,N/A,Thunderstorm,Thunderstorm,90,2012-10-05 03:24:00
11:52 PM,79.0,72.0,79,30.17,10.0,East,8.1,-,N/A,Thunderstorm,Thunderstorm,80,2012-10-05 03:52:00